Location: Unspecified
(40.7945°N, 0.0000°E)
Time: 07:10:46
(UTC+00:00)

A-11 Canister half - Pass Details

Date: 29 January 2021
Orbit: 1516 x 1684 km, 47.2° (Epoch: 28 February)

Event Time Altitude Azimuth Distance (km) Brightness Sun altitude
Rises 21:08:03 0° 270° (W) 4,749 12.3 -44.2°
Reaches altitude 10° 21:11:14 10° 275° (W) 3,744 11.6 -44.8°
Enters shadow 21:17:51 46° 302° (WNW) 1,977 9.6 -45.9°
Maximum altitude 21:20:32 60° 354° (N) 1,719 - -46.4°
Drops below altitude 10° 21:29:40 10° 74° (ENE) 3,678 - -48.0°
Sets 21:32:46 0° 78° (ENE) 4,660 - -48.6°
